ARIANE 5 R/B, 41795

Orbit data source: Space-Track

ARIANE 5 R/B, 41795 is space debris in HEO originally from a launch on Wed, 05 Oct 2016 UTC launched from the French Guiana (FRGUI). Debris objects in space refer to the collection of defunct objects orbiting the Earth. Examples of debris include non-operational satellites, rocket bodies, and fragments generated from explosions, collisions, or faulty payload assembly.

Loading next visibility...
Identifier
41795, 2016-060C
Orbit
HEO
Last TLE update
1 day ago
Origin
Manufacturer
Airbus Safran
Mission
Spacecraft
Bus & Motor
ESC-A, Unknown motor
Mass
~5,000 kg wet, ~5,000 kg dry
Launch date (UTC)
2016-10-05 (9 years ago)
Launch vehicle
Unknown
Launch site
French Guiana (FRGUI)
Object type
Payload
Rocket body
Debris
Shape & HBR
Cyl + 1 Nozzle, 7 m
Radar Cross Section
41.627 m², Large (>1 m²)

Expand to show TLE details & history

TLE from 1 day ago
0 ARIANE 5 R/B
1 41795U 16060C   25181.40612464  .00013916  00000-0  10401-2 0  9991
2 41795   5.6969 136.4116 6972645 168.1253 226.1709  2.70736017 78027
Epoch: 2025-06-30T09:44Z
TLE epoch observation values (Epoch: 2025-06-30T09:44:49.168Z)
Latitude
Longitude
71.43733°
Altitude
28,798.349 km
Speed
2.082 km/s
True Right ascension
09h 05m 26s
True Declination
0° 00' 00"
Sunlit
Object was in daylight at epoch
Visualization orbit readout
Latitude
-3.02345°
Longitude
38.9806°
Altitude
25,542.725 km
Speed
2.577 km/s
Apparent Right ascension
07h 11m 08s
Apparent Declination
-9° 01' 44"
Sunlit
Object is in daylight
Visualization observer readout
Local Sidereal Time
20:55:47
Azimuth
44.159° NE
Elevation
-51.313°
Doppler factor
1
Orbital elements
Apogee altitude
30,539.097 km
Perigee altitude
206.669 km
Semi-major axis
21,751.02 km
Eccentricity
0.69726
Inclination
5.6969°
RAAN
136.4116°
Arg. of periapsis
168.1253°
True anomaly
Unknown
Mean anomaly
226.1709°
Eccentric anomaly
Unknown
Mean motion
0.67659 °/min
Orbital period
532.08 mins
BSTAR
0.0010401
Loading maneuver chart data...
Loading SW <> Apogee altitude chart data...
Loading historical data...
Loading historical data...
Loading historical data...
Loading historical data...
Loading historical data...
Loading historical data...
Loading historical data...
Other satellites on launch #60 in the year 2016 (2016-10-05 UTC)

ARIANE 5 R/B Visibility forecast

Observer location: undefined°, undefined°

Span
Click to sort rows by Start time (UTC) header in descending order
Start Az.
Max El. time (UTC)
Max El. Az.
Max El.
End time (UTC)
End Az.
475 mins2025-07-01 16:06:32.178Z201.315° SSW2025-07-01 21:57:32.178Z177.187° S34.144°2025-07-02 00:01:32.178Z128.576° SE
|